EW9559 Weather Reports


time (UTC)temp
C
wind
direction
speed
KPH
gust
KPH
rain 1hr
cm
rain 24hr
cm
rain mn
cm
humidity
%
barometer
mb
20260503193106 28 4 0.0 4.8 0.00 0.00 0.00 37 1016.5
20260503191530 27 330 0.0 6.4 0.00 0.00 0.00 39 1016.7
20260503190029 27 341 0.0 4.8 0.00 0.00 0.00 41 1016.8
20260503184530 27 316 0.0 4.8 0.00 0.00 0.00 42 1017.0
20260503183103 27 316 0.0 4.8 0.00 0.00 0.00 41 1017.2
20260503180027 27 291 0.0 0.0 0.00 0.00 0.00 42 1017.4
20260503174531 26 265 0.0 0.0 0.00 0.00 0.00 43 1017.5
20260503173031 26 290 0.0 0.0 0.00 0.00 0.00 47 1017.6
20260503171529 23 302 0.0 3.2 0.00 0.00 0.00 51 1017.7
20260503160107 20 292 0.0 0.0 0.00 0.00 0.00 54 1018.0
20260503081604 13 247 0.0 3.2 0.00 0.00 0.00 76 1017.6
20260503054533 16 247 0.0 3.2 0.00 0.00 0.00 69 1017.5
20260503053028 16 241 0.0 3.2 0.00 0.00 0.00 68 1017.6
20260503051530 16 225 0.0 3.2 0.00 0.00 0.00 68 1017.4
20260503050033 16 225 0.0 1.6 0.00 0.00 0.00 67 1017.3
20260503044530 17 243 0.0 3.2 0.00 0.00 0.00 63 1017.3
20260503043107 17 261 0.0 3.2 0.00 0.00 0.00 63 1017.2
20260503041529 17 274 0.0 3.2 0.00 0.00 0.00 65 1017.0
20260503040038 17 275 0.0 1.6 0.00 0.00 0.00 65 1016.7
20260503034528 18 247 0.0 1.6 0.00 0.00 0.00 63 1016.4
20260503031530 19 247 0.0 3.2 0.00 0.00 0.00 62 1015.7
20260503030032 20 239 0.0 3.2 0.00 0.00 0.00 63 1015.4
20260503024528 20 225 0.0 1.6 0.00 0.00 0.00 61 1015.3
20260503020106 22 202 0.0 0.0 0.00 0.00 0.00 57 1015.0
20260503014530 23 202 0.0 0.0 0.00 0.00 0.00 52 1015.0
20260503011532 25 202 0.0 0.0 0.00 0.00 0.00 45 1015.0
20260503010033 25 202 0.0 1.6 0.00 0.00 0.00 44 1015.0
20260503004530 26 202 0.0 1.6 0.00 0.00 0.00 41 1015.0
20260503003029 27 202 0.0 1.6 0.00 0.00 0.00 39 1015.0
20260503001608 27 202 0.0 3.2 0.00 0.00 0.00 37 1015.1
20260503000038 28 208 0.0 3.2 0.00 0.00 0.00 37 1015.2
20260502234532 28 203 0.0 4.8 0.00 0.00 0.00 36 1015.4
20260502233029 29 203 0.0 3.2 0.00 0.00 0.00 36 1015.6
20260502230038 28 229 0.0 3.2 0.00 0.00 0.00 38 1015.9
20260502223107 28 205 0.0 3.2 0.00 0.00 0.00 37 1016.4
20260502221530 27 187 0.0 8.0 0.00 0.00 0.00 39 1016.6
20260502220033 27 196 0.0 3.2 0.00 0.00 0.00 42 1016.7
20260502214531 26 211 0.0 1.6 0.00 0.00 0.00 48 1016.8
20260502213146 24 218 0.0 3.2 0.00 0.00 0.00 54 1017.1
20260502210104 22 328 0.0 6.4 0.00 0.00 0.00 57 1017.4
20260502204530 23 327 0.0 3.2 0.00 0.00 0.00 53 1017.4
20260502203026 23 204 0.0 1.6 0.00 0.00 0.00 56 1017.6
20260502201530 22 199 0.0 3.2 0.00 0.00 0.00 65 1017.9
20260502194533 16 292 0.0 0.0 0.00 0.00 0.00 76 1018.1